Location: Bakhuizen
(52.8696°N, 5.4575°E)
Time: 22:06:41
(UTC+00:00)

Cosmos 1833 - Pass Details

Date: 03 October 2021
Orbit: 834 x 864 km, 70.9° (Epoch: 24 October)

Event Time Altitude Azimuth Distance (km) Brightness Sun altitude
Rises 17:41:49 0° 327° (NNW) 3,399 7.9 -5.6°
Reaches altitude 10° 17:44:17 10° 324° (NW) 2,459 7.2 -6.0°
Maximum altitude 17:49:51 64° 244° (WSW) 926 4.8 -6.8°
Drops below altitude 10° 17:55:22 10° 165° (SSE) 2,443 6.4 -7.7°
Sets 17:57:49 0° 162° (SSE) 3,375 7.1 -8.0°
